Hourly Data Report for April 18, 2021

CLYDE RIVER A
NUNAVUT
Current Station Operator: NAVCAN

70°29'09.000" N
68°31'01.000" W
26.50 m
2400804
71090
YCY

Download Data

Hourly Data (April 2021)
Hourly Data Report for April 18, 2021
TIME
LST
Temp Definition
°C
Dew Point Definition
°C
Rel Hum Definition
%
Precip. Amount Definition
mm

Wind Dir Definition
10's deg

Wind Spd Definition
km/h
Visibility Definition
km
Stn Press Definition
kPa
Hmdx Definition


Wind Chill Definition


Weather Definition


00:00 -15.0 -16.6 88 0.0 32 21 16.1 101.23   -24 Snow
01:00 -15.1 -16.7 88 0.0 32 17 16.1 101.26   -24 Snow
02:00 -15.2 -16.8 88 0.0 32 17 16.1 101.28   -24 Snow
03:00 -15.3 -16.9 88 0.0 32 17 6.4 101.33   -24 Snow
04:00 -15.2 -16.8 88 0.0 33 18 9.7 101.35   -24 Snow
05:00 -15.4 -17.0 88 0.0 32 17 8.1 101.37   -24 Snow
06:00 -15.4 -17.0 88 0.0 32 18 9.7 101.40   -24 Snow
07:00 -15.8 -17.5 87 0.0 32 21 11.3 101.41   -25 LegendNANA
08:00 -15.6 -17.3 87 0.0 33 13 16.1 101.44   -23 LegendNANA
09:00 -15.6 -17.4 87 0.0 33 15 16.1 101.47   -24 LegendNANA
10:00 -14.5 -16.3 86 0.0 34 17 16.1 101.49   -23 LegendNANA
11:00 -14.0 -15.9 86 0.0 34 18 16.1 101.48   -22 LegendNANA
12:00 -13.7 -16.2 82 0.0 34 17 4.8 101.49   -22 Fog
13:00 -13.7 -15.9 84 0.0 33 18 16.1 101.50   -22 LegendNANA
14:00 -13.7 -16.0 83 0.0 33 17 16.1 101.54   -22 Snow
15:00 -13.7 -15.9 84 0.0 33 18 8.1 101.55   -22 Snow
16:00 -13.8 -15.8 85 0.0 33 22 4.8 101.59   -23 Snow
17:00 -14.0 -15.9 86 0.0 32 21 12.9 101.61   -23 Snow
18:00 -14.4 -16.1 87 0.0 31 17 11.3 101.63   -23 Snow
19:00 -15.4 -17.1 87 0.0 30 22 16.1 101.63   -25 LegendNANA
20:00 -16.6 -18.3 87 0.0 31 15 11.3 101.66   -25 Snow
21:00 -18.3 -20.0 87 0.0 30 21 16.1 101.68   -29 Snow
22:00 -17.4 -19.1 87 0.0 30 22 12.9 101.67   -28 Snow
23:00 -16.1 -17.7 88 0.0 30 18 16.1 101.66   -25 Snow

Notes on Data Quality.

Legend

  • E = Estimated
  • M = Missing
  • NA = Not Available*
  • [empty] = Indicates an unobserved value
Date modified: